V.C. Bird, Antigua

1:39 AM AST on December 12, 2019 (GMT -0400)
V C Bird International

Weather History for TAPA - August, 2019

Change the Weather History Date:

Wednesday, August 21, 2019

  Actual Average Record
Temperature  
Mean Temperature 82 °F -  
Max Temperature 86 °F 85 °F 89 °F (1997)
Min Temperature 78 °F 77 °F 73 °F (2002)
Cooling Degree Days 17    
Growing Degree Days 32 (Base 50)    
Moisture  
Dew Point 73 °F    
Average Humidity 74    
Maximum Humidity 89    
Minimum Humidity 60    
Precipitation  
Precipitation 0.12 in - - ()
Sea Level Pressure  
Sea Level Pressure 30.00 in    
Wind  
Wind Speed 8 mph ()    
Max Wind Speed 15 mph    
Max Gust Speed -    
Visibility 8.2 miles    
Events Rain    
Averages and records for this station are not official NWS values.
T = Trace of Precipitation, MM = Missing Value Source: Averaged Metar Reports

Daily Weather History Graph

Daily Weather History Graph

Search for Another Location

Airport or City:

Astronomy

Aug. 21, 2019 Rise Set
Actual Time 5:51 AM AST 6:28 PM AST
Civil Twilight 5:29 AM AST 6:51 PM AST
Nautical Twilight 5:03 AM AST 7:17 PM AST
Astronomical Twilight 4:36 AM AST 7:43 PM AST
Moon 10:34 PM AST (8/21) 10:36 AM AST (8/21)
Length of Visible Light 13h 21m
Length of Day
12h 37m
Waning Gibbous, 69% of the Moon is Illuminated
Aug 21
Waning Gibbous
Aug 23
Last Quarter
Aug 30
New
Sep 5
First Quarter
Sep 14
Full

Hourly Weather History & Observations

Time (AST) Temp. Heat Index Dew Point Humidity Pressure Visibility Wind Dir Wind Speed Gust Speed Precip Events Conditions
12:00 AM 80.6 °F 86.2 °F 75.2 °F 84% 30.01 in 6.2 mi East 6.9 mph - N/A   Scattered Clouds
1:00 AM 80.6 °F 85.4 °F 73.4 °F 79% 29.98 in 6.2 mi East 10.4 mph - N/A   Scattered Clouds
2:00 AM 81 °F - 71 °F 65% 30.00 in 19 mi East 9.2 mph - -   Partly Cloudy
2:00 AM 80.6 °F 84.6 °F 71.6 °F 74% 29.98 in 6.2 mi East 9.2 mph - N/A   Partly Cloudy
3:00 AM 80.6 °F 84.6 °F 71.6 °F 74% 29.98 in 6.2 mi East 8.1 mph - N/A   Partly Cloudy
4:00 AM 80.6 °F 84.6 °F 71.6 °F 74% 29.98 in 6.2 mi ENE 6.9 mph - N/A   Partly Cloudy
5:00 AM 80.6 °F 84.6 °F 71.6 °F 74% 29.98 in 6.2 mi ENE 8.1 mph - N/A   Mostly Cloudy
6:00 AM 80.6 °F 83.9 °F 69.8 °F 70% 29.98 in 6.2 mi ENE 8.1 mph - N/A   Mostly Cloudy
7:00 AM 80.6 °F 84.6 °F 71.6 °F 74% 30.01 in 6.2 mi ENE 8.1 mph - N/A   Scattered Clouds
8:00 AM 83 °F - 73 °F 64% 30.03 in 9 mi ENE 12.7 mph - - Rain Light Rain Showers
8:00 AM 82.4 °F 88.2 °F 73.4 °F 74% 30.01 in 6.2 mi ENE 12.7 mph - N/A   Scattered Clouds
9:00 AM 84.2 °F 90.9 °F 73.4 °F 70% 30.04 in 6.2 mi East 13.8 mph - N/A   Scattered Clouds
10:00 AM 86.0 °F 91.8 °F 71.6 °F 62% 30.04 in 6.2 mi East 15.0 mph - N/A   Scattered Clouds
11:00 AM 85 °F - 73 °F 60% 30.05 in 19 mi East 10.4 mph - -   Mostly Cloudy
11:00 AM 86.0 °F 93.4 °F 73.4 °F 66% 30.04 in 6.2 mi East 10.4 mph - N/A   Mostly Cloudy
12:00 PM 78.8 °F - 75.2 °F 89% 30.04 in 6.2 mi ESE 10.4 mph - N/A Rain Light Rain Showers
1:00 PM 80.6 °F 86.2 °F 75.2 °F 84% 30.01 in 6.2 mi East 6.9 mph - N/A   Mostly Cloudy
2:00 PM 83 °F - 74 °F 68% 29.99 in 19 mi ENE 10.4 mph - -   Partly Cloudy
2:00 PM 82.4 °F 88.2 °F 73.4 °F 74% 29.98 in 6.2 mi ENE 10.4 mph - N/A   Mostly Cloudy
3:00 PM 84.2 °F 90.9 °F 73.4 °F 70% 29.98 in 6.2 mi East 9.2 mph - N/A   Scattered Clouds
4:00 PM 84.2 °F 90.9 °F 73.4 °F 70% 29.98 in 6.2 mi East 9.2 mph - N/A   Scattered Clouds
5:00 PM 83 °F - 74 °F 67% 29.98 in 15 mi East 9.2 mph - -   Mostly Cloudy
5:00 PM 82.4 °F 88.2 °F 73.4 °F 74% 29.98 in 6.2 mi East 9.2 mph - N/A   Scattered Clouds
6:00 PM 82.4 °F 88.2 °F 73.4 °F 74% 29.98 in 6.2 mi East 9.2 mph - N/A   Mostly Cloudy
7:00 PM 80.6 °F 85.4 °F 73.4 °F 79% 29.98 in 6.2 mi ESE 6.9 mph - N/A   Partly Cloudy
8:00 PM 80 °F - 73 °F 74% 30.00 in 17 mi East 6.9 mph - - Rain Light Rain Showers
8:00 PM 78.8 °F - 73.4 °F 83% 29.98 in 6.2 mi East 6.9 mph - N/A Rain Light Rain Showers
9:00 PM 80.6 °F 85.4 °F 73.4 °F 79% 30.01 in 6.2 mi ESE 6.9 mph - N/A   Scattered Clouds
10:00 PM 80.6 °F 86.2 °F 75.2 °F 84% 30.01 in 6.2 mi SE 8.1 mph - N/A   Scattered Clouds
11:00 PM 80.6 °F 85.4 °F 73.4 °F 79% 30.01 in 6.2 mi ESE 6.9 mph - N/A   Partly Cloudy